FW3849 Weather Reports


Display with metric or nautical units.
time (UTC)temp
F
wind
direction
speed
MPH
gust
MPH
rain 1hr
in
rain 24hr
in
rain mn
in
humidity
%
barometer
mb
20260510142016 79 210 11.0 21.0 0.00 0.00 0.00 48 1009.5
20260510141514 78 189 10.0 19.0 0.00 0.00 0.00 49 1009.4
20260510140508 77 193 11.0 17.0 0.00 0.00 0.00 50 1009.4
20260510140007 76 209 10.0 15.0 0.00 0.00 0.00 51 1009.4
20260510135507 76 199 8.0 15.0 0.00 0.00 0.00 53 1009.4
20260510135004 75 218 7.0 15.0 0.00 0.00 0.00 53 1009.5
20260510134503 75 193 7.0 11.0 0.00 0.00 0.00 53 1009.6
20260510134001 75 189 7.0 13.0 0.00 0.00 0.00 54 1009.6
20260510133601 74 198 8.0 13.0 0.00 0.00 0.00 54 1009.4
20260510133117 74 196 7.0 12.0 0.00 0.00 0.00 54 1009.5
20260510132559 74 229 7.0 12.0 0.00 0.00 0.00 54 1009.4
20260510132101 74 191 7.0 12.0 0.00 0.00 0.00 55 1009.5
20260510131604 73 200 5.0 10.0 0.00 0.00 0.00 55 1009.3
20260510130558 73 164 4.0 10.0 0.00 0.00 0.00 56 1009.0
20260510130058 72 189 4.0 11.0 0.00 0.00 0.00 56 1009.0
20260510125555 72 194 5.0 11.0 0.00 0.00 0.00 56 1009.0
20260510125055 72 195 4.0 11.0 0.00 0.00 0.00 56 1008.9
20260510124559 71 185 6.0 10.0 0.00 0.00 0.00 57 1008.8
20260510124055 71 231 5.0 9.0 0.00 0.00 0.00 57 1008.9
20260510123555 71 196 4.0 8.0 0.00 0.00 0.00 58 1008.9
20260510123101 70 203 3.0 8.0 0.00 0.00 0.00 57 1008.9
20260510122556 70 189 4.0 8.0 0.00 0.00 0.00 58 1008.8
20260510122053 70 188 4.0 8.0 0.00 0.00 0.00 57 1008.8
20260510121553 70 206 4.0 8.0 0.00 0.00 0.00 57 1008.8
20260510120549 70 191 4.0 10.0 0.00 0.00 0.00 57 1008.6
20260510120049 71 191 6.0 10.0 0.00 0.00 0.00 56 1008.6
20260510115550 71 216 5.0 14.0 0.00 0.00 0.00 55 1008.6
20260510115048 72 201 6.0 14.0 0.00 0.00 0.00 55 1008.5
20260510114548 72 188 8.0 12.0 0.00 0.00 0.00 54 1008.5
20260510114047 72 183 6.0 15.0 0.00 0.00 0.00 54 1008.5
20260510113548 72 185 8.0 15.0 0.00 0.00 0.00 55 1008.5
20260510113047 71 196 7.0 13.0 0.00 0.00 0.00 54 1008.5
20260510112547 71 200 7.0 12.0 0.00 0.00 0.00 55 1008.5
20260510112048 71 192 5.0 9.0 0.00 0.00 0.00 54 1008.5
20260510111546 71 171 3.0 10.0 0.00 0.00 0.00 54 1008.5
20260510110549 72 174 6.0 11.0 0.00 0.00 0.00 54 1008.5
20260510110045 71 175 4.0 11.0 0.00 0.00 0.00 54 1008.3
20260510105545 71 169 6.0 11.0 0.00 0.00 0.00 54 1008.4
20260510105043 71 152 5.0 9.0 0.00 0.00 0.00 55 1008.4
20260510104543 71 164 3.0 6.0 0.00 0.00 0.00 55 1008.3
20260510104041 71 189 3.0 6.0 0.00 0.00 0.00 54 1008.3
20260510103540 71 166 3.0 10.0 0.00 0.00 0.00 54 1008.3
20260510103043 72 189 3.0 11.0 0.00 0.00 0.00 53 1008.2
20260510102539 72 189 6.0 13.0 0.00 0.00 0.00 54 1008.1
20260510102037 71 191 8.0 13.0 0.00 0.00 0.00 54 1008.0
20260510101539 70 191 4.0 10.0 0.00 0.00 0.00 55 1008.1
20260510100538 71 190 3.0 6.0 0.00 0.00 0.00 54 1007.9
20260510100037 71 188 3.0 6.0 0.00 0.00 0.00 53 1008.0
20260510095538 72 183 4.0 10.0 0.00 0.00 0.00 53 1007.9
20260510095037 72 201 6.0 11.0 0.00 0.00 0.00 53 1008.0
20260510094537 71 173 7.0 11.0 0.00 0.00 0.00 54 1007.9
20260510094037 71 212 4.0 10.0 0.00 0.00 0.00 54 1007.9
20260510093537 70 191 6.0 10.0 0.00 0.00 0.00 54 1007.8
20260510093037 70 189 4.0 9.0 0.00 0.00 0.00 54 1007.9
20260510092539 70 198 4.0 9.0 0.00 0.00 0.00 54 1007.8
20260510092037 70 184 4.0 9.0 0.00 0.00 0.00 54 1007.8
20260510091535 70 202 3.0 8.0 0.00 0.00 0.00 54 1007.8
20260510090540 70 191 3.0 8.0 0.00 0.00 0.00 54 1007.8
20260510090040 70 183 3.0 6.0 0.00 0.00 0.00 53 1007.8
20260510085543 70 187 3.0 6.0 0.00 0.00 0.00 53 1007.9
20260510085039 70 181 3.0 5.0 0.00 0.00 0.00 53 1008.0
20260510084539 70 187 3.0 6.0 0.00 0.00 0.00 52 1008.0
20260510084039 71 192 2.0 6.0 0.00 0.00 0.00 52 1008.0
20260510083539 71 190 1.0 6.0 0.00 0.00 0.00 51 1008.1
20260510083039 71 195 4.0 6.0 0.00 0.00 0.00 51 1008.0
20260510082539 71 171 3.0 6.0 0.00 0.00 0.00 51 1008.0
20260510082039 72 168 4.0 7.0 0.00 0.00 0.00 50 1008.0
20260510081545 72 183 3.0 8.0 0.00 0.00 0.00 49 1008.1
20260510080536 72 166 2.0 8.0 0.00 0.00 0.00 49 1008.2
20260510080037 72 204 3.0 6.0 0.00 0.00 0.00 49 1008.2
20260510075537 72 162 3.0 7.0 0.00 0.00 0.00 48 1008.3
20260510075040 73 179 3.0 8.0 0.00 0.00 0.00 48 1008.3
20260510074537 73 146 5.0 7.0 0.00 0.00 0.00 48 1008.3
20260510074037 72 177 3.0 7.0 0.00 0.00 0.00 48 1008.3
20260510073537 73 175 3.0 7.0 0.00 0.00 0.00 48 1008.4
20260510073049 73 162 3.0 8.0 0.00 0.00 0.00 48 1008.3
20260510072536 73 149 3.0 8.0 0.00 0.00 0.00 47 1008.4
20260510072036 73 196 2.0 7.0 0.00 0.00 0.00 48 1008.4
20260510071536 72 189 4.0 8.0 0.00 0.00 0.00 48 1008.5
20260510070533 72 192 3.0 7.0 0.00 0.00 0.00 49 1008.5
20260510070034 72 158 3.0 6.0 0.00 0.00 0.00 49 1008.4
20260510065536 73 155 3.0 6.0 0.00 0.00 0.00 48 1008.5
20260510065037 73 147 3.0 7.0 0.00 0.00 0.00 47 1008.5
20260510064541 74 168 4.0 7.0 0.00 0.00 0.00 47 1008.5
20260510064033 74 185 5.0 10.0 0.00 0.00 0.00 46 1008.7
20260510063532 74 180 6.0 10.0 0.00 0.00 0.00 46 1008.6
20260510063039 74 194 6.0 9.0 0.00 0.00 0.00 47 1008.7
20260510062533 74 181 4.0 6.0 0.00 0.00 0.00 47 1008.7
20260510062032 74 182 3.0 9.0 0.00 0.00 0.00 46 1008.8
20260510061532 74 181 3.0 8.0 0.00 0.00 0.00 46 1008.8
20260510060532 74 191 4.0 8.0 0.00 0.00 0.00 46 1008.9
20260510060033 74 191 3.0 5.0 0.00 0.00 0.00 45 1009.0
20260510055531 74 183 3.0 5.0 0.00 0.00 0.00 45 1009.0
20260510055031 75 188 2.0 5.0 0.00 0.00 0.00 44 1009.1
20260510054531 75 200 3.0 5.0 0.00 0.00 0.00 43 1009.1
20260510054035 76 170 2.0 4.0 0.00 0.00 0.00 42 1008.9
20260510053530 77 183 2.0 5.0 0.00 0.00 0.00 41 1008.9
20260510053035 77 137 2.0 11.0 0.00 0.00 0.00 40 1009.0
20260510052532 78 177 4.0 11.0 0.00 0.00 0.00 39 1009.0
20260510052031 78 199 5.0 11.0 0.00 0.00 0.00 39 1009.1
20260510051534 76 171 4.0 10.0 0.00 0.00 0.00 41 1009.1
20260510050535 75 187 5.0 10.0 0.00 0.00 0.00 42 1008.9
20260510050030 74 160 3.0 6.0 0.00 0.00 0.00 41 1008.9
20260510045530 74 165 1.0 4.0 0.00 0.00 0.00 40 1008.9
20260510045033 74 189 2.0 4.0 0.00 0.00 0.00 39 1008.9
20260510044539 74 152 2.0 4.0 0.00 0.00 0.00 38 1008.9
20260510044031 74 179 2.0 6.0 0.00 0.00 0.00 37 1008.8
20260510043529 75 204 3.0 7.0 0.00 0.00 0.00 36 1008.8
20260510043028 75 187 5.0 7.0 0.00 0.00 0.00 36 1008.8
20260510042528 75 197 2.0 4.0 0.00 0.00 0.00 36 1008.8
20260510042028 75 197 2.0 5.0 0.00 0.00 0.00 35 1008.8
20260510041528 76 189 4.0 8.0 0.00 0.00 0.00 33 1008.8
20260510040529 77 202 4.0 8.0 0.00 0.00 0.00 32 1008.8
20260510040031 78 200 5.0 8.0 0.00 0.00 0.00 32 1008.6
20260510035527 78 199 3.0 7.0 0.00 0.00 0.00 32 1008.6
20260510035030 78 193 4.0 6.0 0.00 0.00 0.00 32 1008.7
20260510034534 78 191 3.0 8.0 0.00 0.00 0.00 32 1008.6
20260510034030 78 159 4.0 8.0 0.00 0.00 0.00 31 1008.5
20260510033527 79 228 4.0 6.0 0.00 0.00 0.00 31 1008.6
20260510033026 80 213 3.0 9.0 0.00 0.00 0.00 30 1008.5
20260510032529 80 184 4.0 9.0 0.00 0.00 0.00 30 1008.4
20260510032027 80 177 4.0 11.0 0.00 0.00 0.00 29 1008.4
20260510031532 80 193 3.0 6.0 0.00 0.00 0.00 30 1008.3
20260510030526 80 182 3.0 6.0 0.00 0.00 0.00 30 1008.3
20260510030027 80 200 4.0 7.0 0.00 0.00 0.00 30 1008.2
20260510025526 80 185 3.0 6.0 0.00 0.00 0.00 29 1008.3
20260510025026 81 191 2.0 6.0 0.00 0.00 0.00 29 1008.2
20260510024527 81 191 3.0 6.0 0.00 0.00 0.00 29 1008.2
20260510024025 81 191 3.0 5.0 0.00 0.00 0.00 28 1008.2
20260510023525 82 177 3.0 6.0 0.00 0.00 0.00 28 1008.1
20260510023025 82 183 3.0 6.0 0.00 0.00 0.00 28 1008.1
20260510022525 82 190 2.0 5.0 0.00 0.00 0.00 27 1008.1
20260510022025 82 179 2.0 4.0 0.00 0.00 0.00 27 1008.1
20260510021534 83 158 1.0 4.0 0.00 0.00 0.00 26 1007.9
20260510020525 84 158 2.0 6.0 0.00 0.00 0.00 25 1007.8
20260510020024 84 165 2.0 6.0 0.00 0.00 0.00 25 1007.7
20260510015524 85 189 1.0 5.0 0.00 0.00 0.00 24 1007.6
20260510015028 85 191 2.0 7.0 0.00 0.00 0.00 24 1007.6
20260510014524 86 176 4.0 8.0 0.00 0.00 0.00 23 1007.5
20260510014027 86 183 3.0 5.0 0.00 0.00 0.00 23 1007.4
20260510013524 87 206 3.0 6.0 0.00 0.00 0.00 22 1007.2
20260510013023 87 206 3.0 7.0 0.00 0.00 0.00 22 1007.2
20260510012523 88 196 3.0 8.0 0.00 0.00 0.00 22 1007.2
20260510012023 88 199 4.0 9.0 0.00 0.00 0.00 21 1007.1
20260510011522 88 209 5.0 10.0 0.00 0.00 0.00 21 1007.1
20260510010523 89 204 4.0 11.0 0.00 0.00 0.00 20 1007.0
20260510010024 89 189 4.0 11.0 0.00 0.00 0.00 19 1006.9
20260510005523 90 181 6.0 10.0 0.00 0.00 0.00 18 1006.9
20260510005023 90 170 3.0 12.0 0.00 0.00 0.00 18 1006.9
20260510004522 90 175 6.0 12.0 0.00 0.00 0.00 17 1006.9
20260510004023 91 198 5.0 12.0 0.00 0.00 0.00 18 1006.8
20260510003522 91 202 5.0 13.0 0.00 0.00 0.00 17 1006.8
20260510003026 91 204 6.0 13.0 0.00 0.00 0.00 16 1006.7
20260510002522 91 212 7.0 13.0 0.00 0.00 0.00 14 1006.7
20260510002021 91 193 4.0 11.0 0.00 0.00 0.00 16 1006.7
20260510001523 91 180 5.0 10.0 0.00 0.00 0.00 15 1006.8
20260510000521 92 243 6.0 11.0 0.00 0.00 0.00 14 1006.8
20260510000021 92 227 6.0 11.0 0.00 0.00 0.00 15 1006.7
20260509235520 92 222 5.0 11.0 0.00 0.00 0.00 15 1006.7
20260509235019 92 237 7.0 11.0 0.00 0.00 0.00 14 1006.7
20260509234524 92 281 4.0 12.0 0.00 0.00 0.00 13 1006.7
20260509234018 92 244 7.0 13.0 0.00 0.00 0.00 13 1006.7
20260509233518 92 260 9.0 14.0 0.00 0.00 0.00 13 1006.7
20260509233118 92 248 8.0 14.0 0.00 0.00 0.00 14 1006.7
20260509232517 92 239 4.0 9.0 0.00 0.00 0.00 14 1006.9
20260509232017 92 212 5.0 14.0 0.00 0.00 0.00 15 1006.9
20260509231516 92 214 8.0 14.0 0.00 0.00 0.00 14 1006.9
20260509230516 92 189 7.0 11.0 0.00 0.00 0.00 13 1006.9
20260509230015 92 237 5.0 10.0 0.00 0.00 0.00 16 1006.9
20260509225515 92 238 4.0 11.0 0.00 0.00 0.00 17 1006.9
20260509225019 92 233 2.0 11.0 0.00 0.00 0.00 16 1007.0
20260509224513 92 231 4.0 11.0 0.00 0.00 0.00 16 1007.1
20260509224014 92 247 6.0 11.0 0.00 0.00 0.00 16 1007.2
20260509223512 92 193 6.0 13.0 0.00 0.00 0.00 17 1007.2
20260509223012 92 200 8.0 12.0 0.00 0.00 0.00 16 1007.1
20260509222511 92 192 6.0 14.0 0.00 0.00 0.00 17 1007.2
20260509222011 91 203 5.0 12.0 0.00 0.00 0.00 17 1007.2
20260509221511 92 202 6.0 13.0 0.00 0.00 0.00 18 1007.3
20260509220513 92 204 4.0 13.0 0.00 0.00 0.00 18 1007.3
20260509220013 92 224 8.0 13.0 0.00 0.00 0.00 18 1007.4
20260509215513 91 231 7.0 12.0 0.00 0.00 0.00 19 1007.4
20260509215012 91 238 6.0 13.0 0.00 0.00 0.00 20 1007.4
20260509214511 92 244 7.0 12.0 0.00 0.00 0.00 18 1007.5
20260509214011 91 202 5.0 12.0 0.00 0.00 0.00 17 1007.5
20260509213511 91 258 6.0 12.0 0.00 0.00 0.00 19 1007.5
20260509213010 91 215 8.0 11.0 0.00 0.00 0.00 20 1007.6
20260509212509 91 225 5.0 14.0 0.00 0.00 0.00 20 1007.7
20260509212109 91 208 14.0 14.0 0.00 0.00 0.00 20 1007.7
20260509211512 91 226 3.0 10.0 0.00 0.00 0.00 18 1007.7
20260509210505 91 231 5.0 10.0 0.00 0.00 0.00 18 1008.0
20260509210009 91 245 6.0 10.0 0.00 0.00 0.00 18 1008.1
20260509205502 91 250 3.0 13.0 0.00 0.00 0.00 21 1008.3
20260509205001 91 142 5.0 13.0 0.00 0.00 0.00 21 1008.4
20260509204501 90 287 2.0 10.0 0.00 0.00 0.00 20 1008.5
20260509204101 90 229 3.0 12.0 0.00 0.00 0.00 20 1008.6
20260509204001 90 218 5.0 12.0 0.00 0.00 0.00 19 1008.6
20260509203602 90 212 7.0 12.0 0.00 0.00 0.00 20 1008.6
20260509203058 90 252 6.0 12.0 0.00 0.00 0.00 21 1008.7
20260509202600 90 185 6.0 12.0 0.00 0.00 0.00 21 1008.7
20260509202057 90 204 5.0 8.0 0.00 0.00 0.00 24 1008.8
20260509201601 89 277 9.0 14.0 0.00 0.00 0.00 23 1009.0
20260509200554 89 226 6.0 11.0 0.00 0.00 0.00 24 1009.0
20260509195552 88 164 3.0 11.0 0.00 0.00 0.00 25 1009.3
20260509195051 88 183 5.0 16.0 0.00 0.00 0.00 25 1009.3
20260509194551 88 229 8.0 16.0 0.00 0.00 0.00 26 1009.4
20260509194051 88 239 4.0 12.0 0.00 0.00 0.00 27 1009.4
20260509193550 88 148 3.0 12.0 0.00 0.00 0.00 27 1009.5
20260509193050 88 239 8.0 14.0 0.00 0.00 0.00 27 1009.6
20260509192547 88 195 8.0 14.0 0.00 0.00 0.00 28 1009.7
20260509192047 87 212 7.0 11.0 0.00 0.00 0.00 29 1009.8
20260509191546 87 243 6.0 13.0 0.00 0.00 0.00 31 1009.8
20260509190544 86 196 4.0 10.0 0.00 0.00 0.00 30 1010.0
20260509190051 86 147 4.0 13.0 0.00 0.00 0.00 31 1010.1
20260509185543 86 205 9.0 15.0 0.00 0.00 0.00 31 1010.0
20260509185042 86 187 7.0 15.0 0.00 0.00 0.00 32 1010.0
20260509184540 85 192 5.0 14.0 0.00 0.00 0.00 33 1010.1
20260509184039 85 173 4.0 12.0 0.00 0.00 0.00 34 1010.3
20260509183539 85 183 5.0 12.0 0.00 0.00 0.00 35 1010.4
20260509183040 85 218 7.0 12.0 0.00 0.00 0.00 35 1010.4
20260509182537 85 191 5.0 13.0 0.00 0.00 0.00 35 1010.6
20260509182035 84 181 9.0 13.0 0.00 0.00 0.00 36 1010.6
20260509181538 83 98 5.0 13.0 0.00 0.00 0.00 38 1010.8
20260509180537 83 248 6.0 13.0 0.00 0.00 0.00 38 1010.9
20260509180038 83 199 5.0 12.0 0.00 0.00 0.00 38 1010.9
20260509175535 82 205 6.0 11.0 0.00 0.00 0.00 40 1011.0
20260509175034 82 168 8.0 11.0 0.00 0.00 0.00 39 1011.1
20260509174533 82 206 3.0 10.0 0.00 0.00 0.00 43 1011.3
20260509174031 81 192 5.0 10.0 0.00 0.00 0.00 43 1011.3
20260509173532 81 208 5.0 13.0 0.00 0.00 0.00 41 1011.3
20260509173030 81 212 6.0 13.0 0.00 0.00 0.00 42 1011.3
20260509172529 81 214 6.0 12.0 0.00 0.00 0.00 44 1011.4
20260509172029 80 192 7.0 12.0 0.00 0.00 0.00 45 1011.4
20260509171536 80 177 5.0 12.0 0.00 0.00 0.00 46 1011.3
20260509170524 79 198 5.0 9.0 0.00 0.00 0.00 47 1011.5
20260509170027 79 198 5.0 9.0 0.00 0.00 0.00 48 1011.6
20260509165519 78 220 4.0 12.0 0.00 0.00 0.00 49 1011.6
20260509165018 78 197 8.0 13.0 0.00 0.00 0.00 49 1011.5
20260509164517 78 201 6.0 13.0 0.00 0.00 0.00 50 1011.8
20260509164016 77 152 5.0 10.0 0.00 0.00 0.00 51 1011.8
20260509163516 78 187 5.0 9.0 0.00 0.00 0.00 51 1011.9
20260509163015 77 190 3.0 6.0 0.00 0.00 0.00 52 1011.9
20260509162513 76 177 1.0 11.0 0.00 0.00 0.00 52 1012.0
20260509162014 76 166 5.0 11.0 0.00 0.00 0.00 53 1012.2
20260509161512 75 141 4.0 11.0 0.00 0.00 0.00 55 1012.1
20260509160513 75 117 5.0 11.0 0.00 0.00 0.00 55 1012.3
20260509160011 75 191 4.0 9.0 0.00 0.00 0.00 55 1012.1
20260509155511 75 187 4.0 11.0 0.00 0.00 0.00 56 1012.1
20260509155007 74 146 5.0 11.0 0.00 0.00 0.00 56 1012.1
20260509154506 74 199 4.0 11.0 0.00 0.00 0.00 56 1012.1
20260509154005 74 194 6.0 11.0 0.00 0.00 0.00 56 1012.0
20260509153607 74 160 5.0 10.0 0.00 0.00 0.00 57 1011.9
20260509153004 74 141 4.0 10.0 0.00 0.00 0.00 56 1011.9
20260509152503 74 108 4.0 9.0 0.00 0.00 0.00 56 1011.8
20260509152004 73 179 3.0 9.0 0.00 0.00 0.00 57 1011.8
20260509151501 72 172 4.0 8.0 0.00 0.00 0.00 57 1011.9
20260509150501 72 154 4.0 9.0 0.00 0.00 0.00 57 1011.9
20260509150005 72 168 5.0 9.0 0.00 0.00 0.00 57 1012.0
20260509145600 72 127 4.0 11.0 0.00 0.00 0.00 58 1012.0
20260509145103 72 218 5.0 11.0 0.00 0.00 0.00 58 1012.2
20260509144558 71 176 6.0 10.0 0.00 0.00 0.00 57 1012.2
20260509144057 71 154 6.0 11.0 0.00 0.00 0.00 58 1012.1
20260509143558 70 206 6.0 12.0 0.00 0.00 0.00 58 1012.2
20260509143057 70 134 5.0 12.0 0.00 0.00 0.00 58 1012.4
20260509142555 70 179 8.0 12.0 0.00 0.00 0.00 58 1012.3